2022-019U (51842 NORAD) Tracking and Keplerian Element Data

This shows tracking and keplerian element data for the satellite.

Feedback or suggestion? Click here.




ElementValue
Catalog51842
Name2022-019U
Epoch Orbit10480
Epoch Day13.2513097
Epoch Year2024
RAAN111.0716
Inclination97.5183
Eccentricity0.003969
Argument of Perigee307.9544
Mean Anonmoly51.8122
Mean Motion15.48500339
Decay Rate0.00050018
L11 51842U 22019U 24013.25130970 .00050018 00000+0 90901-3 0 9996
L22 51842 97.5183 111.0716 0039690 307.9544 51.8122 15.48500339104801



Live tracking and technical data element details for 2022-019U (NORAD 51842). 2022-019U can be tracked NOW for your location showing map with azimuth and elevation plus other details from your city location.







IsCatalogInMostPopularTable: catalog: 51842, numindb: 43
Update: records affected: 1



GetName: 51842 2022-019U

Hit Count: updated at: Fri, 19 Apr 2024 12:38:27 GMT